When you browse on this site, cookies collect data to enhance your experience and personalize the content and advertising you see.
Visit our Privacy Policy to learn more. By continuing to use the site, you agree to this use of cookies and data.
  • In United Kingdom
  • List of Countries
  • For 7 days
  • Water Temperature
  • Weather Map
  • Weather Widgets
  • user-avatar
    Login

    Hourly Weather Torokszentmiklos

    Today, 19 September, Thursday

    Time Temperature Precipitation Wind Pressure Humidity
    00:00 +12°C° 0 mm 2 mps 759 mmHg 46%
    01:00 +10°C° 0 mm 2 mps 759 mmHg 48%
    02:00 +10°C° 0 mm 2 mps 759 mmHg 51%
    03:00 +9°C° 0 mm 2 mps 759 mmHg 53%
    04:00 +9°C° 0 mm 2 mps 759 mmHg 56%
    05:00 +9°C° 0 mm 2 mps 759 mmHg 56%
    06:00 +10°C° 0 mm 3 mps 759 mmHg 55%
    07:00 +10°C° 0 mm 3 mps 759 mmHg 55%
    08:00 +12°C° 0 mm 3 mps 759 mmHg 50%
    09:00 +14°C° 0 mm 3 mps 759 mmHg 45%
    10:00 +17°C° 0 mm 3 mps 759 mmHg 40%
    11:00 +17°C° 0 mm 3 mps 759 mmHg 37%
    12:00 +18°C° 0 mm 3 mps 759 mmHg 34%
    13:00 +19°C° 0 mm 3 mps 758 mmHg 31%
    14:00 +19°C° 0 mm 3 mps 758 mmHg 30%
    15:00 +19°C° 0 mm 3 mps 758 mmHg 30%
    16:00 +19°C° 0 mm 3 mps 758 mmHg 29%
    17:00 +17°C° 0 mm 3 mps 759 mmHg 34%
    18:00 +15°C° 0 mm 2 mps 759 mmHg 38%
    19:00 +14°C° 0 mm 2 mps 759 mmHg 43%
    20:00 +13°C° 0 mm 2 mps 760 mmHg 46%
    21:00 +12°C° 0 mm 2 mps 760 mmHg 49%
    22:00 +11°C° 0 mm 3 mps 760 mmHg 51%
    23:00 +10°C° 0 mm 2 mps 760 mmHg 54%

    Tomorrow, 20 September, Friday

    Time Temperature Precipitation Wind Pressure Humidity
    00:00 +10°C° 0 mm 2 mps 760 mmHg 56%
    01:00 +9°C° 0 mm 2 mps 760 mmHg 58%
    02:00 +9°C° 0 mm 2 mps 760 mmHg 60%
    03:00 +8°C° 0 mm 2 mps 760 mmHg 62%
    04:00 +8°C° 0 mm 2 mps 760 mmHg 63%
    05:00 +9°C° 0 mm 2 mps 761 mmHg 62%
    06:00 +10°C° 0 mm 2 mps 761 mmHg 60%
    07:00 +10°C° 0 mm 2 mps 761 mmHg 59%
    08:00 +13°C° 0 mm 2 mps 761 mmHg 52%
    09:00 +15°C° 0 mm 2 mps 762 mmHg 46%
    10:00 +17°C° 0 mm 2 mps 762 mmHg 39%
    11:00 +17°C° 0 mm 2 mps 762 mmHg 36%
    12:00 +18°C° 0 mm 2 mps 761 mmHg 33%
    13:00 +19°C° 0 mm 2 mps 761 mmHg 31%
    14:00 +19°C° 0 mm 2 mps 761 mmHg 29%
    15:00 +19°C° 0 mm 2 mps 761 mmHg 28%
    16:00 +19°C° 0 mm 2 mps 760 mmHg 27%
    17:00 +17°C° 0 mm 2 mps 761 mmHg 30%
    18:00 +16°C° 0 mm 1 mps 761 mmHg 34%
    19:00 +14°C° 0 mm 1 mps 761 mmHg 38%
    20:00 +13°C° 0 mm 1 mps 761 mmHg 40%
    21:00 +13°C° 0 mm 2 mps 761 mmHg 42%
    22:00 +12°C° 0 mm 2 mps 762 mmHg 45%
    23:00 +10°C° 0 mm 2 mps 762 mmHg 46%

    Day after tomorrow, 21 September, Saturday

    Time Temperature Precipitation Wind Pressure Humidity
    00:00 +10°C° 0 mm 2 mps 762 mmHg 48%
    01:00 +10°C° 0 mm 1 mps 762 mmHg 50%
    02:00 +10°C° 0 mm 1 mps 762 mmHg 51%
    03:00 +10°C° 0 mm 1 mps 762 mmHg 52%
    04:00 +9°C° 0 mm 1 mps 762 mmHg 53%
    05:00 +10°C° 0 mm 1 mps 762 mmHg 51%
    06:00 +11°C° 0 mm 1 mps 762 mmHg 49%
    07:00 +12°C° 0 mm 1 mps 762 mmHg 46%
    08:00 +14°C° 0 mm 1 mps 762 mmHg 42%
    09:00 +16°C° 0 mm 2 mps 762 mmHg 37%
    10:00 +18°C° 0 mm 2 mps 762 mmHg 32%
    11:00 +19°C° 0 mm 2 mps 762 mmHg 30%
    12:00 +20°C° 0 mm 2 mps 761 mmHg 28%
    13:00 +21°C° 0 mm 2 mps 761 mmHg 26%
    14:00 +22°C° 0 mm 1 mps 760 mmHg 26%
    15:00 +22°C° 0 mm 1 mps 760 mmHg 25%
    16:00 +22°C° 0 mm 1 mps 760 mmHg 25%
    17:00 +20°C° 0 mm 1 mps 760 mmHg 28%
    18:00 +18°C° 0 mm 1 mps 759 mmHg 31%
    19:00 +16°C° 0 mm 1 mps 759 mmHg 34%
    20:00 +15°C° 0 mm 1 mps 759 mmHg 36%
    21:00 +15°C° 0 mm 1 mps 759 mmHg 37%
    22:00 +14°C° 0 mm 2 mps 759 mmHg 38%
    23:00 +14°C° 0 mm 2 mps 759 mmHg 40%

    22 September, Sunday

    Time Temperature Precipitation Wind Pressure Humidity
    00:00 +13°C° 0 mm 2 mps 759 mmHg 41%
    01:00 +12°C° 0 mm 2 mps 759 mmHg 43%
    02:00 +12°C° 0 mm 2 mps 758 mmHg 45%
    03:00 +12°C° 0 mm 2 mps 758 mmHg 47%
    04:00 +10°C° 0 mm 2 mps 758 mmHg 49%
    05:00 +12°C° 0 mm 2 mps 758 mmHg 47%
    06:00 +12°C° 0 mm 2 mps 758 mmHg 46%
    07:00 +13°C° 0 mm 2 mps 758 mmHg 44%
    08:00 +16°C° 0 mm 3 mps 757 mmHg 38%
    09:00 +18°C° 0 mm 3 mps 757 mmHg 31%
    10:00 +21°C° 0 mm 3 mps 757 mmHg 25%
    11:00 +22°C° 0 mm 3 mps 756 mmHg 23%
    12:00 +24°C° 0 mm 3 mps 756 mmHg 21%
    13:00 +26°C° 0 mm 3 mps 755 mmHg 18%
    14:00 +26°C° 0 mm 3 mps 755 mmHg 19%
    15:00 +26°C° 0 mm 3 mps 754 mmHg 19%
    16:00 +26°C° 0 mm 3 mps 754 mmHg 20%
    17:00 +25°C° 0 mm 3 mps 753 mmHg 22%
    18:00 +22°C° 0 mm 3 mps 753 mmHg 23%
    19:00 +21°C° 0 mm 3 mps 753 mmHg 25%
    20:00 +20°C° 0 mm 3 mps 753 mmHg 25%
    21:00 +20°C° 0 mm 3 mps 753 mmHg 26%
    22:00 +20°C° 0 mm 3 mps 752 mmHg 26%
    23:00 +20°C° 0 mm 3 mps 752 mmHg 26%

    23 September, Monday

    Time Temperature Precipitation Wind Pressure Humidity
    00:00 +20°C° 0 mm 3 mps 752 mmHg 26%
    01:00 +20°C° 0 mm 3 mps 752 mmHg 27%
    02:00 +20°C° 0 mm 3 mps 752 mmHg 28%
    03:00 +19°C° 0 mm 4 mps 751 mmHg 30%
    04:00 +19°C° 0 mm 4 mps 751 mmHg 31%
    05:00 +19°C° 0.1 mm 5 mps 751 mmHg 44%
    06:00 +17°C° 0.1 mm 5 mps 751 mmHg 57%
    07:00 +17°C° 0.1 mm 5 mps 751 mmHg 69%
    08:00 +16°C° 1.5 mm 5 mps 751 mmHg 72%
    09:00 +15°C° 1.5 mm 5 mps 751 mmHg 75%
    10:00 +14°C° 1.5 mm 5 mps 751 mmHg 78%
    11:00 +14°C° 1.6 mm 5 mps 751 mmHg 82%
    12:00 +14°C° 1.6 mm 4 mps 750 mmHg 86%
    13:00 +14°C° 1.6 mm 4 mps 750 mmHg 90%
    14:00 +16°C° 0.1 mm 3 mps 750 mmHg 89%
    15:00 +16°C° 0.1 mm 3 mps 750 mmHg 88%
    16:00 +17°C° 0.1 mm 2 mps 750 mmHg 87%
    17:00 +17°C° 0 mm 2 mps 750 mmHg 88%
    18:00 +17°C° 0 mm 2 mps 750 mmHg 90%
    19:00 +16°C° 0 mm 1 mps 750 mmHg 91%
    20:00 +16°C° 0 mm 2 mps 750 mmHg 90%
    21:00 +16°C° 0 mm 3 mps 750 mmHg 89%
    22:00 +15°C° 0 mm 4 mps 750 mmHg 87%
    23:00 +15°C° 0 mm 4 mps 750 mmHg 86%

    24 September, Tuesday

    Time Temperature Precipitation Wind Pressure Humidity
    00:00 +15°C° 0 mm 4 mps 750 mmHg 84%
    01:00 +15°C° 0 mm 4 mps 750 mmHg 82%
    02:00 +14°C° 0 mm 4 mps 751 mmHg 82%
    03:00 +14°C° 0 mm 4 mps 751 mmHg 82%
    04:00 +13°C° 0 mm 5 mps 751 mmHg 82%
    05:00 +14°C° 0 mm 5 mps 751 mmHg 81%
    06:00 +14°C° 0 mm 5 mps 751 mmHg 79%
    07:00 +14°C° 0 mm 5 mps 751 mmHg 78%
    08:00 +16°C° 0 mm 5 mps 752 mmHg 72%
    09:00 +17°C° 0 mm 5 mps 752 mmHg 65%
    10:00 +19°C° 0 mm 6 mps 752 mmHg 58%
    11:00 +20°C° 0 mm 6 mps 752 mmHg 53%
    12:00 +21°C° 0 mm 6 mps 752 mmHg 48%
    13:00 +22°C° 0 mm 6 mps 752 mmHg 43%
    14:00 +22°C° 0 mm 6 mps 752 mmHg 44%
    15:00 +22°C° 0 mm 6 mps 752 mmHg 44%
    16:00 +22°C° 0 mm 5 mps 752 mmHg 44%
    17:00 +20°C° 0 mm 5 mps 752 mmHg 51%
    18:00 +19°C° 0 mm 5 mps 752 mmHg 58%
    19:00 +17°C° 0 mm 4 mps 752 mmHg 65%
    20:00 +17°C° 0 mm 4 mps 753 mmHg 67%
    21:00 +17°C° 0 mm 3 mps 753 mmHg 68%
    22:00 +17°C° 0 mm 3 mps 753 mmHg 69%
    23:00 +16°C° 0 mm 3 mps 753 mmHg 71%
    Show more